{"data":{"norad_id":55589,"intl_designator":"2023-020W","name":"STARLINK-5697","alt_names":[],"object_type":"PAYLOAD","status":"ACTIVE","operator":null,"country":"US","launch_date":"2023-02-12","launch_site_code":"AFETR","launch_vehicle":null,"mission":null,"orbit_class":"UNKNOWN","rcs_meters":null,"size_class":null,"mass_kg":null,"dimensions":null,"purposes":["comms"],"wikipedia_slug":null,"has_3d_model":false,"image_url":null,"decayed_at":null,"tle_current":{"epoch":"2026-09-20T16:17:00.895776Z","epoch_age_seconds":85027,"freshness":"FRESH","line1":"1 55589U 23020W   26263.67848259 -.00001260  00000+0 -36268-4 0  9996","line2":"2 55589  43.0042 344.0223 0001557 293.4556  66.6132 15.27575618198736","mean_motion":15.27575618,"eccentricity":0.0001557,"inclination_deg":43.0042,"raan_deg":344.0223,"arg_perigee_deg":293.4556,"mean_anomaly_deg":66.6132,"bstar":-3.6268e-5,"rev_number":19873,"period_min":94.267019127036,"perigee_km":481.99392863729,"apogee_km":484.13050607358,"semimajor_km":6861.1992173554,"source":"CELESTRAK","updated_at":"2026-09-21T09:00:33.267936Z"}}}